Voltar ao catálogo

STARLINK-34714

AtivoComunicaçõesSSO
NORAD 64939·PAYLOAD·🇺🇸 United States

Lançado Jul 26, 2025 de Vandenberg Space Force Base

Loading…

Próximas Passagens (próximas 24 horas)

TLE

AtualizadoSource: CelesTrak SupGP

Época: Sep 15, 2026, 03:42 UTC

1 64939C 25158H   26258.15465278 -.00020335  00000+0 -63108-3 0  2586
2 64939  97.2844 116.5795 0001819  97.3337 119.7113 15.33456822    15

Acompanhe STARLINK-34714 em tempo real com AllMySat

Download on the App Store